Location: Marshall
(39.8477°N, 87.1868°W)
Time: 03:48:25
(UTC+00:00)

BlueWalker 3 - Pass Details

Date: 14 May 2026
Orbit: 447 x 456 km, 53.2° (Epoch: 9 June)

Event Time Altitude Azimuth Distance (km) Brightness Sun altitude
Rises 09:42:26 0° 314° (NW) 2,448 5.3 -9.5°
Reaches altitude 10° 09:46:34 10° 1° (N) 1,577 5.0 -8.9°
Maximum altitude 09:46:59 10° 8° (N) 1,568 5.1 -8.8°
Drops below altitude 10° 09:47:24 10° 15° (NNE) 1,578 5.2 -8.8°
Sets 09:51:32 0° 62° (ENE) 2,451 7.9 -8.1°
